Location: Saluda
(35.2377°N, 82.3468°W)
Time: 19:49:43
(UTC+00:00)

Vanguard 3 - Pass Details

Date: 11 October 2022
Orbit: 509 x 3255 km, 33.3° (Epoch: 01 December)

Event Time Altitude Azimuth Distance (km) Brightness Sun altitude
Rises 14:31:22 0° 273° (W) 2,618 9.4 32.5°
Reaches altitude 10° 14:33:21 10° 268° (W) 1,793 8.6 32.9°
Maximum altitude 14:37:10 57° 189° (S) 756 7.8 33.5°
Drops below altitude 10° 14:42:37 10° 112° (ESE) 2,545 10.9 34.3°
Sets 14:45:55 0° 109° (ESE) 3,872 11.5 34.8°
